Printer-friendly version

IAU Minor Planet Center

Minor Planet Center

MPEC 2000-B02: 2000 AD205

The following Minor Planet Electronic Circular may be linked-to from your own Web pages, but must not otherwise be redistributed electronically.


Read MPEC 2000-B01 Read MPEC 2000-B03


M.P.E.C. 2000-B02                                Issued 2000 Jan. 16, 19:53 UT

     The Minor Planet Electronic Circulars contain information on unusual
         minor planets and routine data on comets.  They are published
   on behalf of Commission 20 of the International Astronomical Union by the
          Minor Planet Center, Smithsonian Astrophysical Observatory,
                          Cambridge, MA 02138, U.S.A.

             Prepared using the Tamkin Foundation Computer Network

             BMARSDEN@CFA.HARVARD.EDU or GWILLIAMS@CFA.HARVARD.EDU
          URL http://cfa-www.harvard.edu/iau/mpc.html  ISSN 1523-6714

                                  2000 AD205

Observations:
     K00AK5D* C2000 01 08.20946 04 12 14.79 -00 55 28.3          18.6 R      699
     K00AK5D  C2000 01 08.23997 04 12 18.15 -00 54 12.5                      699
     K00AK5D  C2000 01 08.27049 04 12 21.44 -00 52 56.9                      699
     K00AK5D  C2000 01 09.16145 04 14 03.02 -00 16 43.2          18.8        704
     K00AK5D  C2000 01 09.17860 04 14 04.79 -00 16 01.9          19.2        704
     K00AK5D  C2000 01 09.18602 04 14 05.73 -00 15 40.1                      711
     K00AK5D  C2000 01 09.19753 04 14 06.90 -00 15 16.4          19.6        704
     K00AK5D  C2000 01 09.21233 04 14 08.49 -00 14 42.7          19.1        704
     K00AK5D  C2000 01 09.22707 04 14 10.01 -00 14 07.0          19.4        704
     K00AK5D  C2000 01 09.25153 04 14 12.59 -00 13 07.7                      651
     K00AK5D  C2000 01 09.25388 04 14 12.83 -00 13 02.3          20.0 V      651
     K00AK5D  C2000 01 09.25647 04 14 13.09 -00 12 56.4                      651
     K00AK5D  C2000 01 11.44477 04 18 13.58 +01 10 39.9          19.1 R      422
     K00AK5D  C2000 01 11.44654 04 18 13.73 +01 10 43.7          19.1 R      422
     K00AK5D  C2000 01 11.44826 04 18 13.92 +01 10 48.2          19.0 R      422
     K00AK5D WC2000 01 11.45009 04 18 14.13 +01 10 52.1          19.0 R      422
     K00AK5D  C2000 01 12.78007 04 20 35.40 +01 57 39.4          18.4 R      046
     K00AK5D  C2000 01 12.78120 04 20 35.60 +01 57 42.1                      046
     K00AK5D  C2000 01 12.78225 04 20 35.70 +01 57 43.7                      046
     K00AK5D  C2000 01 12.78409 04 20 35.88 +01 57 48.0                      046
     K00AK5D  C2000 01 12.78513 04 20 35.99 +01 57 50.2                      046
     K00AK5D  C2000 01 13.82412 04 22 24.09 +02 33 03.4                      046
     K00AK5D  C2000 01 13.82576 04 22 24.25 +02 33 05.9                      046
     K00AK5D  C2000 01 13.82853 04 22 24.52 +02 33 12.7                      046
     K00AK5D  C2000 01 13.82986 04 22 24.66 +02 33 14.7          18.3 R      046
     K00AK5D  C2000 01 14.78502 04 24 02.95 +03 04 24.6                      557
     K00AK5D  C2000 01 14.78725 04 24 03.15 +03 04 29.3                      557
     K00AK5D  C2000 01 14.79167 04 24 03.58 +03 04 37.7                      557
     K00AK5D  C2000 01 14.84177 04 24 08.46 +03 06 13.6                      046
     K00AK5D  C2000 01 14.84406 04 24 08.70 +03 06 19.3                      046
     K00AK5D  C2000 01 14.84564 04 24 08.75 +03 06 20.9                      046
     K00AK5D  C2000 01 14.84715 04 24 08.97 +03 06 24.7                      046
     K00AK5D  C2000 01 14.84918 04 24 09.13 +03 06 27.4          18.5 R      046
     K00AK5D  C2000 01 15.21559 04 24 46.27 +03 18 12.4                      693
     K00AK5D  C2000 01 15.22554 04 24 47.20 +03 18 31.7                      693
     K00AK5D  C2000 01 15.44126 04 25 09.36 +03 25 33.1          18.2 R      422
     K00AK5D  C2000 01 15.44280 04 25 09.62 +03 25 35.8          19.1 R      422
     K00AK5D  C2000 01 15.44509 04 25 09.81 +03 25 39.7          18.6 R      422

Observer details:
046 Klet.  Observers J. Ticha, M. Tichy, Z. Moravec.  0.57-m f/5.2 reflector
    + CCD.
422 Loomberah.  Observer G. J. Garradd.  0.45-m f/5.4 reflector + CCD.
557 Ondrejov.  Observer P. Kusnirak.  0.65-m f/3.6 reflector + CCD.
651 Grasslands Observatory, Tucson.  Observer J. E. McGaha.  0.62-m f/5.1
    reflector + CCD.
693 Catalina Station, Tucson.  Observer M. Hicks.  1.5-m reflector + CCD.
699 Lowell Observatory-LONEOS.  Observer B. A. Skiff.  Measurer B. W. Koehn.
    0.59-m LONEOS Schmidt + CCD.
704 Lincoln Laboratory ETS, New Mexico.  Observers M. Blythe, F. Shelly,
    M. Bezpalko, M. Elowitz, R. Huber.  Measurers J. Stuart, H. Viggh,
    R. Sayer, J. B. Evans.  1.0-m f/2.15 reflector + CCD.
711 McDonald Observatory.  Observer J. G. Ries.  0.76-m reflector + CCD.

Orbital elements:
2000 AD205
Epoch 1999 Dec. 28.0 TT = JDT 2451540.5                 Williams
M  30.43503              (2000.0)            P               Q
n   0.43836816     Peri.  192.53782     +0.98208817     +0.18030306
a   1.7162348      Node   156.85708     -0.15861457     +0.94784636
e   0.5909832      Incl.    8.00227     -0.10170663     +0.26282711
P   2.25           H   18.5           G   0.15
From 38 observations 2000 Jan. 8-15.

Ephemeris:
2000 AD205               a,e,i = 1.72, 0.59, 8                   q = 0.7020
Date    TT    R. A. (2000) Decl.     Delta      r     Elong.  Phase     V
2000 01 07    04 09.90   -01 46.8    0.425    1.298   130.0    35.5    18.7
2000 01 12    04 19.21   +01 30.5    0.487    1.345   129.1    34.6    19.0
2000 01 17    04 27.76   +04 12.8    0.552    1.391   127.6    34.1    19.3
2000 01 22    04 35.86   +06 28.5    0.620    1.435   125.5    33.9    19.7
2000 01 27    04 43.69   +08 23.6    0.691    1.480   123.1    33.9    20.0
2000 02 01    04 51.40   +10 02.2    0.765    1.523   120.5    33.9    20.2
2000 02 06    04 59.09   +11 27.4    0.841    1.565   117.7    33.9    20.5
2000 02 11    05 06.81   +12 41.5    0.920    1.607   114.8    33.9    20.8
2000 02 16    05 14.58   +13 46.2    1.001    1.648   111.9    33.8    21.0
2000 02 21    05 22.43   +14 42.8    1.084    1.688   108.9    33.7    21.2
2000 02 26    05 30.36   +15 32.2    1.169    1.727   106.0    33.5    21.4
2000 03 02    05 38.36   +16 15.4    1.255    1.765   102.9    33.2    21.6
2000 03 07    05 46.46   +16 52.9    1.343    1.802    99.9    32.8    21.8
2000 03 12    05 54.64   +17 25.4    1.431    1.838    96.9    32.4    22.0
2000 03 17    06 02.90   +17 53.1    1.521    1.874    94.0    32.0    22.1

Gareth V. Williams           (C) Copyright 2000 MPC           M.P.E.C. 2000-B02

Read MPEC 2000-B01 Read MPEC 2000-B03


Our Web policy. Index to the CBAT/MPC/ICQ pages.


Valid HTML 4.01!